Time,TemperatureF,DewpointF,PressureIn,WindDirection,WindDirectionDegrees,WindSpeedMPH,WindSpeedGustMPH,Humidity,HourlyPrecipIn,Conditions,Clouds,dailyrainin,SoftwareType,DateUTC
2013-09-28 09:31:00,79.9,68.4,29.76,NE,45,1.3,1.3,68,0.00,,,0.00,VWS V14.01,2013-09-27 23:31:00,
2013-09-28 09:35:00,79.9,68.4,29.76,SSE,158,2.7,2.7,68,0.00,,,0.00,VWS V14.01,2013-09-27 23:35:00,
2013-09-28 09:39:00,80.4,69.3,29.76,East,90,2.5,2.5,69,0.00,,,0.00,VWS V14.01,2013-09-27 23:39:00,
2013-09-28 09:44:00,80.8,68.8,29.76,ENE,68,2.2,2.9,67,0.00,,,0.00,VWS V14.01,2013-09-27 23:44:00,
2013-09-28 09:49:00,80.6,68.6,29.76,SSW,202,1.6,3.1,67,0.00,,,0.00,VWS V14.01,2013-09-27 23:49:00,
2013-09-28 09:54:00,81.3,69.8,29.76,NE,45,4.0,4.0,68,0.00,,,0.00,VWS V14.01,2013-09-27 23:54:00,
2013-09-28 09:59:00,81.9,69.8,29.76,East,90,3.8,3.8,67,0.00,,,0.00,VWS V14.01,2013-09-27 23:59:00,
2013-09-28 10:04:00,82.2,70.2,29.76,ENE,68,2.2,2.2,67,0.00,,,0.00,VWS V14.01,2013-09-28 00:04:00,
2013-09-28 10:09:00,82.6,70.1,29.76,SE,135,2.7,4.5,66,0.00,,,0.00,VWS V14.01,2013-09-28 00:09:00,
2013-09-28 10:14:00,82.6,69.6,29.76,ESE,112,2.9,2.9,65,0.00,,,0.00,VWS V14.01,2013-09-28 00:14:00,
2013-09-28 10:19:00,82.4,69.9,29.76,NE,45,4.9,4.9,66,0.00,,,0.00,VWS V14.01,2013-09-28 00:19:00,
2013-09-28 10:24:00,82.4,69.5,29.76,NE,45,0.0,2.5,65,0.00,,,0.00,VWS V14.01,2013-09-28 00:24:00,
2013-09-28 10:29:00,82.8,69.8,29.76,West,270,2.0,4.0,65,0.00,,,0.00,VWS V14.01,2013-09-28 00:29:00,
2013-09-28 10:34:00,83.5,70.5,29.76,NE,45,5.6,5.6,65,0.00,,,0.00,VWS V14.01,2013-09-28 00:34:00,
2013-09-28 10:39:00,83.7,70.2,29.76,NNE,22,4.3,4.3,64,0.00,,,0.00,VWS V14.01,2013-09-28 00:39:00,
2013-09-28 10:44:00,84.0,70.5,29.76,NE,45,2.7,3.4,64,0.00,,,0.00,VWS V14.01,2013-09-28 00:44:00,
2013-09-28 10:50:00,83.8,69.9,29.76,SSW,202,1.3,2.5,63,0.00,,,0.00,VWS V14.01,2013-09-28 00:50:00,
2013-09-28 10:55:00,83.8,69.9,29.76,North,360,4.7,4.7,63,0.00,,,0.00,VWS V14.01,2013-09-28 00:55:00,
2013-09-28 11:00:00,84.4,69.9,29.76,ENE,68,3.8,3.8,62,0.00,,,0.00,VWS V14.01,2013-09-28 01:00:00,
2013-09-28 11:05:00,85.5,70.5,29.76,NNE,22,6.0,6.0,61,0.00,,,0.00,VWS V14.01,2013-09-28 01:05:00,
2013-09-28 11:10:00,84.9,69.5,29.76,North,360,3.6,4.0,60,0.00,,,0.00,VWS V14.01,2013-09-28 01:10:00,
2013-09-28 11:15:00,85.5,70.0,29.74,NNE,22,3.8,3.8,60,0.00,,,0.00,VWS V14.01,2013-09-28 01:15:00,
2013-09-28 11:20:00,85.5,69.0,29.74,North,360,6.5,6.5,58,0.00,,,0.00,VWS V14.01,2013-09-28 01:20:00,
2013-09-28 11:25:00,85.8,69.8,29.74,North,360,4.3,4.3,59,0.00,,,0.00,VWS V14.01,2013-09-28 01:25:00,
2013-09-28 11:30:00,85.8,69.8,29.74,NE,45,3.1,3.1,59,0.00,,,0.00,VWS V14.01,2013-09-28 01:30:00,
2013-09-28 11:35:00,86.0,69.5,29.74,NE,45,6.0,6.0,58,0.00,,,0.00,VWS V14.01,2013-09-28 01:35:00,
2013-09-28 11:40:00,86.4,69.8,29.74,East,90,2.9,4.9,58,0.00,,,0.00,VWS V14.01,2013-09-28 01:40:00,
2013-09-28 11:45:00,85.8,69.3,29.74,NNW,338,1.1,1.1,58,0.00,,,0.00,VWS V14.01,2013-09-28 01:45:00,
2013-09-28 11:50:00,86.2,69.2,29.74,ENE,68,4.0,4.0,57,0.00,,,0.00,VWS V14.01,2013-09-28 01:50:00,
2013-09-28 11:55:00,86.5,69.5,29.74,NNE,22,4.0,4.0,57,0.00,,,0.00,VWS V14.01,2013-09-28 01:55:00,
2013-09-28 12:00:00,86.7,69.7,29.74,NNE,22,1.3,3.4,57,0.00,,,0.00,VWS V14.01,2013-09-28 02:00:00,
2013-09-28 12:05:00,86.9,69.8,29.74,North,360,5.6,5.6,57,0.00,,,0.00,VWS V14.01,2013-09-28 02:05:00,
2013-09-28 12:10:00,87.1,70.0,29.74,North,360,5.8,5.8,57,0.00,,,0.00,VWS V14.01,2013-09-28 02:10:00,
2013-09-28 12:15:00,87.1,70.0,29.71,North,360,6.0,6.0,57,0.00,,,0.00,VWS V14.01,2013-09-28 02:15:00,
2013-09-28 12:20:00,87.1,69.5,29.71,East,90,5.4,5.6,56,0.00,,,0.00,VWS V14.01,2013-09-28 02:20:00,
2013-09-28 12:25:00,87.1,70.0,29.71,NNE,22,0.9,0.9,57,0.00,,,0.00,VWS V14.01,2013-09-28 02:25:00,
2013-09-28 12:31:00,87.1,70.0,29.71,SE,135,3.4,4.3,57,0.00,,,0.00,VWS V14.01,2013-09-28 02:31:00,
2013-09-28 12:36:00,87.4,70.3,29.71,NNE,22,4.9,4.9,57,0.00,,,0.00,VWS V14.01,2013-09-28 02:36:00,
2013-09-28 12:41:00,87.3,69.7,29.71,NE,45,3.1,7.2,56,0.00,,,0.00,VWS V14.01,2013-09-28 02:41:00,
2013-09-28 12:46:00,87.3,69.7,29.71,NE,45,3.4,6.3,56,0.00,,,0.00,VWS V14.01,2013-09-28 02:46:00,
2013-09-28 12:51:00,87.3,69.7,29.71,ESE,112,4.5,4.5,56,0.00,,,0.00,VWS V14.01,2013-09-28 02:51:00,
2013-09-28 12:56:00,87.4,69.3,29.71,East,90,6.3,6.3,55,0.00,,,0.00,VWS V14.01,2013-09-28 02:56:00,
2013-09-28 13:01:00,87.8,69.1,29.68,North,360,5.6,5.6,54,0.00,,,0.00,VWS V14.01,2013-09-28 03:01:00,
2013-09-28 13:06:00,87.8,69.1,29.68,NNE,22,2.0,2.0,54,0.00,,,0.00,VWS V14.01,2013-09-28 03:06:00,
2013-09-28 13:11:00,87.6,69.5,29.68,North,360,2.7,5.6,55,0.00,,,0.00,VWS V14.01,2013-09-28 03:11:00,
2013-09-28 13:16:00,88.0,69.3,29.68,ENE,68,3.4,5.8,54,0.00,,,0.00,VWS V14.01,2013-09-28 03:16:00,
2013-09-28 13:21:00,87.6,69.5,29.68,NNE,22,4.3,8.5,55,0.00,,,0.00,VWS V14.01,2013-09-28 03:21:00,
2013-09-28 13:26:00,87.6,69.5,29.68,NNE,22,5.6,5.6,55,0.00,,,0.00,VWS V14.01,2013-09-28 03:26:00,
2013-09-28 13:31:00,87.8,69.6,29.68,NNE,22,2.7,2.7,55,0.00,,,0.00,VWS V14.01,2013-09-28 03:31:00,
2013-09-28 13:36:00,88.2,69.4,29.68,NNE,22,2.7,2.7,54,0.00,,,0.00,VWS V14.01,2013-09-28 03:36:00,
2013-09-28 13:41:00,88.3,69.1,29.68,NNE,22,2.7,2.7,53,0.00,,,0.00,VWS V14.01,2013-09-28 03:41:00,
2013-09-28 13:46:00,88.5,68.7,29.68,NNE,22,2.7,2.7,52,0.00,,,0.00,VWS V14.01,2013-09-28 03:46:00,
2013-09-28 13:51:00,88.3,68.5,29.68,NNE,22,2.7,2.7,52,0.00,,,0.00,VWS V14.01,2013-09-28 03:51:00,
2013-09-28 13:56:00,88.0,68.7,29.68,NNE,22,2.7,2.7,53,0.00,,,0.00,VWS V14.01,2013-09-28 03:56:00,
2013-09-28 14:01:00,88.0,68.7,29.68,NNE,22,2.7,2.7,53,0.00,,,0.00,VWS V14.01,2013-09-28 04:01:00,
2013-09-28 14:02:00,88.0,68.7,29.68,NNE,22,2.7,2.7,53,0.00,,,0.00,VWS V14.01,2013-09-28 04:02:00,
2013-09-28 14:04:00,88.2,68.3,29.68,NNE,22,2.7,2.7,52,0.00,,,0.00,VWS V14.01,2013-09-28 04:04:00,
2013-09-28 14:05:00,88.2,68.3,29.68,NNE,22,2.7,2.7,52,0.00,,,0.00,VWS V14.01,2013-09-28 04:05:00,
2013-09-28 14:10:00,87.8,68.0,29.68,NNE,22,2.7,2.7,52,0.00,,,0.00,VWS V14.01,2013-09-28 04:10:00,
2013-09-28 14:15:00,88.3,69.6,29.68,NNE,22,2.7,2.7,54,0.00,,,0.00,VWS V14.01,2013-09-28 04:15:00,
2013-09-28 14:21:00,88.2,69.4,29.68,NNE,22,2.7,2.7,54,0.00,,,0.00,VWS V14.01,2013-09-28 04:21:00,
2013-09-28 14:26:00,87.8,69.6,29.68,NNE,22,2.7,2.7,55,0.00,,,0.00,VWS V14.01,2013-09-28 04:26:00,
2013-09-28 14:31:00,87.8,69.6,29.65,NNE,22,2.7,2.7,55,0.00,,,0.00,VWS V14.01,2013-09-28 04:31:00,
2013-09-28 14:36:00,87.6,69.5,29.65,NNE,22,2.7,2.7,55,0.00,,,0.00,VWS V14.01,2013-09-28 04:36:00,
2013-09-28 14:41:00,87.4,69.3,29.65,North,360,6.5,6.5,55,0.00,,,0.00,VWS V14.01,2013-09-28 04:41:00,
2013-09-28 14:46:00,87.4,69.3,29.65,North,360,6.5,6.5,55,0.00,,,0.00,VWS V14.01,2013-09-28 04:46:00,
2013-09-28 14:51:00,87.6,68.9,29.65,North,360,6.5,6.5,54,0.00,,,0.00,VWS V14.01,2013-09-28 04:51:00,
2013-09-28 14:56:00,87.6,68.9,29.65,North,360,6.5,6.5,54,0.00,,,0.00,VWS V14.01,2013-09-28 04:56:00,
2013-09-28 15:01:00,87.1,69.0,29.65,North,360,6.5,6.5,55,0.00,,,0.00,VWS V14.01,2013-09-28 05:01:00,
2013-09-28 15:06:00,86.9,68.8,29.65,North,360,6.5,6.5,55,0.00,,,0.00,VWS V14.01,2013-09-28 05:06:00,
2013-09-28 15:11:00,86.9,68.8,29.65,North,360,6.5,6.5,55,0.00,,,0.00,VWS V14.01,2013-09-28 05:11:00,
2013-09-28 15:16:00,86.5,68.5,29.65,North,360,6.5,6.5,55,0.00,,,0.00,VWS V14.01,2013-09-28 05:16:00,
2013-09-28 15:21:00,86.4,67.8,29.65,NE,45,5.6,5.6,54,0.00,,,0.00,VWS V14.01,2013-09-28 05:21:00,
2013-09-28 15:26:00,86.5,69.0,29.65,NW,315,3.1,5.4,56,0.00,,,0.00,VWS V14.01,2013-09-28 05:26:00,
2013-09-28 15:31:00,86.4,68.3,29.65,NW,315,4.9,6.0,55,0.00,,,0.00,VWS V14.01,2013-09-28 05:31:00,
2013-09-28 15:36:00,86.0,68.5,29.65,NNW,338,2.0,3.4,56,0.00,,,0.00,VWS V14.01,2013-09-28 05:36:00,
2013-09-28 15:41:00,85.8,68.3,29.65,North,360,3.8,3.8,56,0.00,,,0.00,VWS V14.01,2013-09-28 05:41:00,
2013-09-28 15:46:00,86.0,68.5,29.65,NNE,22,4.3,4.3,56,0.00,,,0.00,VWS V14.01,2013-09-28 05:46:00,
2013-09-28 15:51:00,85.8,68.3,29.65,NNW,338,2.0,2.0,56,0.00,,,0.00,VWS V14.01,2013-09-28 05:51:00,
2013-09-28 15:56:00,86.0,68.5,29.65,NNW,338,2.9,2.9,56,0.00,,,0.00,VWS V14.01,2013-09-28 05:56:00,
2013-09-28 16:01:00,86.0,68.5,29.65,ENE,68,2.9,2.9,56,0.00,,,0.00,VWS V14.01,2013-09-28 06:01:00,
2013-09-28 16:06:00,85.8,68.8,29.65,ENE,68,2.9,2.9,57,0.00,,,0.00,VWS V14.01,2013-09-28 06:06:00,
2013-09-28 16:12:00,85.3,67.8,29.65,NNW,338,4.0,4.0,56,0.00,,,0.00,VWS V14.01,2013-09-28 06:12:00,
2013-09-28 16:17:00,85.3,68.3,29.65,NNW,338,4.0,4.0,57,0.00,,,0.00,VWS V14.01,2013-09-28 06:17:00,
2013-09-28 16:22:00,85.3,68.3,29.65,NNW,338,4.0,4.0,57,0.00,,,0.00,VWS V14.01,2013-09-28 06:22:00,
2013-09-28 16:27:00,85.3,68.3,29.65,NNW,338,4.0,4.0,57,0.00,,,0.00,VWS V14.01,2013-09-28 06:27:00,
2013-09-28 16:32:00,85.3,68.3,29.65,NNW,338,4.0,4.0,57,0.00,,,0.00,VWS V14.01,2013-09-28 06:32:00,
2013-09-28 16:37:00,84.9,68.0,29.65,NNW,338,5.4,5.4,57,0.00,,,0.00,VWS V14.01,2013-09-28 06:37:00,
2013-09-28 16:42:00,84.6,68.2,29.65,NNW,338,5.4,5.4,58,0.00,,,0.00,VWS V14.01,2013-09-28 06:42:00,
2013-09-28 16:47:00,84.6,68.2,29.65,NNW,338,5.4,5.4,58,0.00,,,0.00,VWS V14.01,2013-09-28 06:47:00,
2013-09-28 16:52:00,84.6,68.2,29.65,NNW,338,5.4,5.4,58,0.00,,,0.00,VWS V14.01,2013-09-28 06:52:00,
2013-09-28 16:57:00,84.4,68.0,29.65,NNW,338,5.4,5.4,58,0.00,,,0.00,VWS V14.01,2013-09-28 06:57:00,
2013-09-28 17:02:00,83.8,68.0,29.65,NNW,338,5.4,5.4,59,0.00,,,0.00,VWS V14.01,2013-09-28 07:02:00,
2013-09-28 17:07:00,83.7,67.8,29.65,NNW,338,5.4,5.4,59,0.00,,,0.00,VWS V14.01,2013-09-28 07:07:00,
2013-09-28 17:12:00,83.3,68.0,29.65,NNW,338,5.4,5.4,60,0.00,,,0.00,VWS V14.01,2013-09-28 07:12:00,
2013-09-28 17:17:00,83.1,67.8,29.68,NNW,338,5.4,5.4,60,0.00,,,0.00,VWS V14.01,2013-09-28 07:17:00,
2013-09-28 17:22:00,82.9,68.1,29.68,NNE,22,4.7,4.7,61,0.00,,,0.00,VWS V14.01,2013-09-28 07:22:00,
2013-09-28 17:27:00,82.8,67.9,29.68,NNE,22,4.7,4.7,61,0.00,,,0.00,VWS V14.01,2013-09-28 07:27:00,
2013-09-28 17:32:00,82.4,68.1,29.68,NNE,22,4.7,4.7,62,0.00,,,0.00,VWS V14.01,2013-09-28 07:32:00,
2013-09-28 17:37:00,82.2,68.4,29.68,NNE,22,4.7,4.7,63,0.00,,,0.00,VWS V14.01,2013-09-28 07:37:00,
2013-09-28 17:42:00,82.0,68.2,29.68,North,360,3.8,3.8,63,0.00,,,0.00,VWS V14.01,2013-09-28 07:42:00,
2013-09-28 17:47:00,81.7,67.9,29.68,North,360,3.8,3.8,63,0.00,,,0.00,VWS V14.01,2013-09-28 07:47:00,
2013-09-28 17:52:00,81.5,67.7,29.68,WNW,292,1.3,3.8,63,0.00,,,0.00,VWS V14.01,2013-09-28 07:52:00,
2013-09-28 17:58:00,81.3,67.5,29.68,North,360,3.1,3.1,63,0.00,,,0.00,VWS V14.01,2013-09-28 07:58:00,
2013-09-28 18:03:00,81.1,67.4,29.68,NW,315,1.6,1.6,63,0.00,,,0.00,VWS V14.01,2013-09-28 08:03:00,
2013-09-28 18:08:00,80.8,67.0,29.68,NW,315,2.2,2.2,63,0.00,,,0.00,VWS V14.01,2013-09-28 08:08:00,
2013-09-28 18:13:00,80.4,67.1,29.68,WNW,292,1.1,1.1,64,0.00,,,0.00,VWS V14.01,2013-09-28 08:13:00,
2013-09-28 18:18:00,80.1,66.8,29.68,WNW,292,1.6,1.6,64,0.00,,,0.00,VWS V14.01,2013-09-28 08:18:00,
2013-09-28 18:23:00,79.9,67.1,29.68,WNW,292,1.6,1.6,65,0.00,,,0.00,VWS V14.01,2013-09-28 08:23:00,
2013-09-28 18:28:00,79.9,67.1,29.68,WNW,292,1.6,1.6,65,0.00,,,0.00,VWS V14.01,2013-09-28 08:28:00,
2013-09-28 18:33:00,79.9,67.1,29.68,WNW,292,1.6,1.6,65,0.00,,,0.00,VWS V14.01,2013-09-28 08:33:00,
2013-09-28 18:38:00,79.3,66.6,29.68,WNW,292,1.6,1.6,65,0.00,,,0.00,VWS V14.01,2013-09-28 08:38:00,
2013-09-28 18:43:00,79.0,66.7,29.68,WNW,292,1.6,1.6,66,0.00,,,0.00,VWS V14.01,2013-09-28 08:43:00,
2013-09-28 18:48:00,78.8,66.5,29.68,West,270,0.0,0.0,66,0.00,,,0.00,VWS V14.01,2013-09-28 08:48:00,
2013-09-28 18:53:00,78.8,66.5,29.68,WSW,248,0.0,0.0,66,0.00,,,0.00,VWS V14.01,2013-09-28 08:53:00,
2013-09-28 18:58:00,78.6,66.8,29.68,West,270,0.9,0.9,67,0.00,,,0.00,VWS V14.01,2013-09-28 08:58:00,
2013-09-28 19:03:00,78.3,66.4,29.71,WNW,292,1.3,1.3,67,0.00,,,0.00,VWS V14.01,2013-09-28 09:03:00,
2013-09-28 19:08:00,78.1,66.7,29.71,WNW,292,1.3,1.3,68,0.00,,,0.00,VWS V14.01,2013-09-28 09:08:00,
2013-09-28 19:14:00,77.9,66.5,29.71,WNW,292,1.3,1.3,68,0.00,,,0.00,VWS V14.01,2013-09-28 09:14:00,
2013-09-28 19:19:00,78.3,66.8,29.71,WSW,248,3.1,3.1,68,0.00,,,0.00,VWS V14.01,2013-09-28 09:19:00,
2013-09-28 19:24:00,78.4,67.0,29.71,WSW,248,3.1,3.1,68,0.00,,,0.00,VWS V14.01,2013-09-28 09:24:00,